TIME,DELAY(SENSOR),PRES,OXYGEN,RAWTEMP,T(OPTODE),TCPHASE,FLUOR,BETA(BETA700),BETA(BETA412),BETA(BETA440),CDOM,C(CSC),ED(ED412.40),ED(ED444.00),ED(ED489.70),ED(ED554.30),LU(LU411.80),LU(LU443.40),LU(LU489.60),LU(LU554.10),COMP,TILTX,TILTY,CHECK
1342755985,5808,878.9799804687500000,41.8849792480468750,657.9119873046875000,4.6966881752014160,54.6894683837890600,52,101,90,79,82,15397,2147759387,2147423972,2148007277,2147875885,2147639195,2147064118,2148257600,2147200740,3585,5,13,52058
1342759581,5810,962.8599853515625000,48.5452804565429700,669.1442871093750000,4.3264617919921875,53.8578910827636700,52,100,87,79,82,15395,2147760292,2147422171,2148005714,2147875337,2147643456,2147060589,2148259995,2147199798,711,4,13,3318
1342763181,5807,967.5999755859375000,50.8389396667480500,671.5087890625000000,4.2483429908752440,53.5751991271972660,53,100,91,79,82,15391,2147759853,2147424512,2148005997,2147874139,2147645449,2147061586,2148259346,2147198902,369,5,13,35139
1342766781,5810,999.1599731445312000,52.0848999023437500,674.9077148437500000,4.1359419822692870,53.4473991394043000,53,98,91,78,81,15394,2147762048,2147421513,2148005595,2147879314,2147644608,2147063652,2148263689,2147200365,3447,5,13,23597
1342770381,5810,997.5499877929688000,51.9551506042480500,675.9990844726562000,4.0998167991638180,53.4753303527832000,53,99,91,80,83,15393,2147762825,2147423378,2148008877,2147875629,2147646893,2147060617,2148262866,2147197010,881,5,13,54899
1342773981,5810,1006.0700073242188000,51.6145286560058600,676.6995239257812000,4.0766329765319820,53.5345191955566400,52,97,85,80,81,15394,2147762413,2147422537,2148009901,2147874340,2147646473,2147059721,2148264996,2147197888,3360,5,13,7150
1342777581,5809,1012.4899902343750000,51.3963699340820300,676.3079833984375000,4.0895938873291020,53.5587387084960940,52,98,91,79,81,15393,2147760128,2147422061,2148004873,2147875657,2147641170,2147057974,2148262144,2147197156,3185,5,13,28107
1342781181,5809,1013.9099731445312000,51.1882591247558600,675.7990112304688000,4.1064429283142090,53.5780601501464840,53,98,89,80,82,15394,2147761929,2147420699,2148005211,2147879286,2147644114,2147058340,2148264082,2147200246,2309,5,13,46294
1342784781,5811,1008.5700073242188000,51.0940399169921900,675.5875854492188000,4.1134400367736820,53.5875396728515600,53,98,91,80,82,15389,2147764498,2147422582,2148008941,2147875821,2147646144,2147055561,2148260836,2147200923,2964,5,13,49544
1342788381,5808,1024.4200439453125000,50.7887115478515600,674.9901733398438000,4.1332111358642580,53.6259498596191400,52,97,88,80,81,15391,2147762203,2147419812,2148006573,2147877330,2147643913,2147063213,2148259593,2147198921,690,5,13,22343
1342791981,5809,1025.1400146484375000,50.9759216308593750,673.2656250000000000,4.1902618408203125,53.5744094848632800,52,99,89,78,82,15391,2147759771,2147420736,2148008054,2147877385,2147647625,2147059392,2148260022,2147200018,366,5,13,61224
1342795581,5807,1023.7800292968750000,51.0448913574218750,674.2808837890625000,4.1566791534423830,53.5791702270507800,52,98,85,79,81,15390,2147761005,2147421019,2148007305,2147879076,2147642121,2147061339,2148259209,2147199963,3554,4,13,22244
1342799181,5808,1021.6799926757812000,50.8047218322753900,674.6594238281250000,4.1441559791564940,53.6157188415527340,52,97,88,79,82,15379,2147760804,2147425691,2148005037,2147877979,2147645275,2147059894,2148259126,2147194870,3454,5,13,18823
1342802781,5807,1019.9000244140625000,50.6752281188964840,674.9437866210938000,4.1347470283508300,53.6412200927734400,52,96,89,80,83,15390,2147757641,2147421092,2148007808,2147877110,2147644169,2147060022,2148261595,2147198619,823,5,13,38876
1342806381,5810,1018.1300048828125000,50.7966804504394500,675.7056884765625000,4.1095309257507320,53.6317100524902340,54,100,88,79,81,15390,2147760996,2147421129,2148007881,2147875154,2147643666,2147061293,2148259757,2147197440,248,5,13,62933
1342809981,5809,1025.6999511718750000,50.5984916687011700,674.7631225585938000,4.1407241821289060,53.6494789123535160,51,99,89,78,81,15390,2147762825,2147421010,2148007058,2147876443,2147644278,2147057810,2148262272,2147202989,169,5,13,33276
1342813581,5808,1024.2199707031250000,50.5649108886718750,675.0759277343750000,4.1303749084472660,53.6558494567871100,52,99,88,80,82,15391,2147761398,2147422226,2148006701,2147874733,2147643035,2147060022,2148263213,2147198674,3068,5,13,29606
1342817181,5809,1023.2000122070312000,50.3202400207519500,676.1538696289062000,4.0946941375732420,53.7032318115234400,52,101,88,80,82,15391,2147761536,2147419355,2148007104,2147878043,2147643437,2147058596,2148259730,2147200914,35,5,13,7275
1342820781,5808,1021.2000122070312000,50.9618110656738300,676.7296752929688000,4.0756340026855470,53.6244697570800800,53,98,88,80,82,15389,2147761627,2147422793,2148007314,2147874633,2147645193,2147061522,2148257362,2147199524,3262,5,13,1463
1342824381,5806,1019.1699829101562000,51.0568084716796900,677.6892700195312000,4.0438518524169920,53.6253700256347660,53,101,88,79,82,15344,2147762880,2147425133,2148007424,2147880201,2147642870,2147060196,2148259794,2147201810,3350,5,13,29264
1342827981,5809,1024.3599853515625000,51.1429100036621100,678.1682739257812000,4.0279879570007320,53.6152687072753900,53,100,88,77,83,15385,2147760649,2147422528,2148009956,2147875602,2147642944,2147057737,2148258825,2147197312,539,5,13,4776
1342831581,5809,1025.8699951171875000,51.1055107116699200,676.5902709960938000,4.0802478790283200,53.6030311584472660,53,97,90,79,82,15384,2147760566,2147425115,2148009956,2147875593,2147646262,2147060534,2148261769,2147200045,210,5,13,13327
1342835181,5812,1035.3399658203125000,51.4061508178710940,675.1259765625000000,4.1287159919738770,53.5430183410644500,52,101,89,78,80,15382,2147758710,2147422811,2148009700,2147877924,2147643273,2147062619,2148257792,2147196653,3551,5,13,21906
1342838781,5808,1034.5200195312500000,50.2566795349121100,674.1876831054688000,4.1597628593444820,53.6852607727050800,52,100,87,79,82,15381,2147759478,2147424448,2148007661,2147876297,2147643081,2147057261,2148255844,2147203273,3256,5,13,4632
1342842381,5808,1035.9599609375000000,51.0779914855957000,674.8748168945312000,4.1370301246643070,53.5864295959472660,53,102,90,79,82,15382,2147761152,2147423387,2148008009,2147876150,2147642697,2147062482,2148259318,2147199798,3564,4,13,32736
1342845981,5809,1023.4199829101562000,49.3850517272949200,673.6024780273438000,4.1791191101074220,53.8044891357421900,52,98,89,79,82,15388,2147758592,2147424429,2148008594,2147875190,2147643410,2147061558,2148259520,2147203282,322,5,13,4908
1342849581,5807,1014.8499755859375000,50.7371101379394500,675.3225708007812000,4.1222100257873535,53.6394309997558600,52,98,91,81,81,15386,2147760914,2147421138,2148010075,2147874313,2147642048,2147062153,2148256557,2147202240,124,5,13,42876
1342853181,5811,1012.6300048828125000,51.2058296203613300,675.5510253906250000,4.1146550178527830,53.5718307495117200,52,100,90,79,81,15384,2147761819,2147421174,2148006857,2147873874,2147642166,2147065819,2148264667,2147199268,449,5,13,3886
1342856781,5810,1022.0800170898438000,51.4008216857910160,675.1452026367188000,4.1280817985534670,53.5414695739746100,52,99,86,80,82,15378,2147758610,2147423817,2148006107,2147878363,2147643949,2147055862,2148260662,2147197284,267,5,13,61034
1342860381,5810,1015.1799926757812000,51.1199417114257800,675.5496215820312000,4.1146979331970215,53.5876693725585940,52,97,87,79,81,15383,2147758948,2147422939,2148008996,2147876854,2147639469,2147059062,2148261824,2147200950,96,5,13,60800
1342863981,5806,1012.0300292968750000,49.6453208923339840,677.0051269531250000,4.0665130615234375,53.8094291687011700,53,99,96,78,81,15382,2147760566,2147423277,2148007936,2147875364,2147638153,2147059529,2148259849,2147199122,3551,4,13,39165
1342867581,5806,1011.3900146484375000,49.1044311523437500,677.8801269531250000,4.0375370979309080,53.8974113464355500,52,101,88,80,82,15362,2147760585,2147419730,2148007963,2147874541,2147644736,2147060224,2148266752,2147200822,26,5,13,24161
1342871181,5806,1017.1900024414062000,49.2044715881347660,677.9827880859375000,4.0341339111328125,53.8830909729003900,52,101,88,78,82,15381,2147760950,2147421577,2148006436,2147875419,2147641078,2147059227,2148261577,2147201142,131,4,13,4576
1342874781,5809,1024.5699462890625000,49.5503196716308600,676.4666748046875000,4.0843410491943360,53.8104400634765600,53,100,90,79,82,15379,2147760786,2147422134,2148005467,2147875209,2147641408,2147057572,2148265435,2147197732,450,4,13,19795
1342878381,5809,1024.2099609375000000,50.1283493041992200,673.7987060546875000,4.1726298332214355,53.6990585327148440,53,99,86,80,81,15381,2147759634,2147423552,2148009508,2147875757,2147643821,2147061796,2148258806,2147204050,190,5,13,56402
1342881981,5809,1027.8499755859375000,50.3470802307128900,674.3604125976562000,4.1540508270263670,53.6791801452636700,52,98,88,78,83,15380,2147755108,2147423872,2148006976,2147877074,2147644443,2147052973,2148263817,2147199396,203,5,13,18010
1342885581,5807,1024.8000488281250000,49.3764114379882800,673.5654296875000000,4.1803460121154785,53.7974014282226560,52,99,91,79,80,15379,2147759899,2147421906,2148008859,2147877705,2147641755,2147054281,2148257243,2147200713,199,4,13,10630
1342889181,5806,1025.3199462890625000,49.7480583190918000,673.9323730468750000,4.1682090759277340,53.7508087158203100,53,100,90,79,81,15378,2147760219,2147421723,2148006738,2147879003,2147641883,2147058843,2148257746,2147201078,3523,5,13,45489
1342892781,5808,1023.6500244140625000,49.2002601623535160,674.0894165039062000,4.1630129814147950,53.8306388854980500,52,98,87,80,82,15380,2147759405,2147421284,2148004772,2147878555,2147641673,2147057728,2148257709,2147203712,365,4,13,40332
1342896381,5808,1021.2299804687500000,49.8274192810058600,674.9620971679688000,4.1341400146484375,53.7553787231445300,52,97,89,79,82,15379,2147758363,2147421558,2148007753,2147876708,2147646189,2147056137,2148255643,2147202441,229,5,13,60039
1342899981,5809,1018.8499755859375000,50.4504585266113300,675.5609130859375000,4.1143231391906740,53.6759109497070300,52,99,86,80,82,15381,2147758610,2147421833,2148006610,2147879707,2147642267,2147055716,2148259072,2147197888,301,5,13,24684
1342900255,5807,1020.7000122070312000,50.4944610595703100,675.6060791015625000,4.1128268241882320,53.6759300231933600,53,99,92,79,82,15386,2147759762,2147424694,2148008429,2147876379,2147641088,2147055158,2148255881,2147203529,186,5,13,10889
